,,,PA_Meas_PMT16A,,PR_Meas_QMR101_102,,RH_Meas_QMH101,,SR_Meas_QMS101,,TA_Meas_QMH101,,GenWind,,GenWind,
date,time,status,PA,status,PR,status,RH,status,SR,status,TA,status,DirAvg,status,SpdAvg,
2011-04-17, 00:00:04,VALID,1001.2,VALID,0,VALID,91.3876,VALID,0,VALID,24.5599,VALID,23,VALID,0,
2011-04-17, 00:01:04,VALID,1001.19,VALID,0,VALID,91.4105,VALID,0,VALID,24.5599,VALID,23,VALID,0.177734,
2011-04-17, 00:02:04,VALID,1001.2,VALID,0,VALID,91.4257,VALID,0,VALID,24.6008,VALID,23,VALID,0.410937,
2011-04-17, 00:03:04,VALID,1001.17,VALID,0,VALID,91.5097,VALID,0,VALID,24.5794,VALID,23,VALID,0.60625,
2011-04-17, 00:04:04,VALID,1001.19,VALID,0,VALID,91.5631,VALID,0,VALID,24.5989,VALID,23,VALID,0.546484,
2011-04-17, 00:05:04,VALID,1001.16,VALID,0,VALID,91.5783,VALID,0,VALID,24.5989,VALID,23,VALID,0.533594,
2011-04-17, 00:06:04,VALID,1001.15,VALID,0,VALID,91.6012,VALID,0,VALID,24.6184,VALID,23,VALID,0.433594,
2011-04-17, 00:07:04,VALID,1001.08,VALID,0,VALID,91.586,VALID,0,VALID,24.6203,VALID,23,VALID,0.3875,
2011-04-17, 00:08:04,VALID,1001.04,VALID,0,VALID,91.5631,VALID,0,VALID,24.6184,VALID,85,VALID,0.566016,
2011-04-17, 00:09:04,VALID,1000.99,VALID,0,VALID,91.4715,VALID,0,VALID,24.5989,VALID,131,VALID,0.81875,
2011-04-17, 00:10:04,VALID,1000.96,VALID,0,VALID,91.38,VALID,0,VALID,24.5794,VALID,136,VALID,1.03477,
2011-04-17, 00:11:04,VALID,1000.9,VALID,0,VALID,91.2579,VALID,0,VALID,24.5989,VALID,136,VALID,1.11445,
2011-04-17, 00:12:04,VALID,1000.88,VALID,0,VALID,91.1663,VALID,0,VALID,24.6184,VALID,151,VALID,1,
2011-04-17, 00:13:04,VALID,1000.79,VALID,0,VALID,91.0366,VALID,0,VALID,24.6575,VALID,151,VALID,0.923437,
2011-04-17, 00:14:04,VALID,1000.81,VALID,0,VALID,90.9451,VALID,0,VALID,24.677,VALID,150,VALID,0.996094,
2011-04-17, 00:15:04,VALID,1000.77,VALID,0,VALID,90.8688,VALID,0,VALID,24.677,VALID,139,VALID,1.10312,
2011-04-17, 00:16:04,VALID,1000.77,VALID,0,VALID,90.7849,VALID,0,VALID,24.7179,VALID,139,VALID,0.830078,
2011-04-17, 00:17:04,VALID,1000.76,VALID,0,VALID,90.7238,VALID,0,VALID,24.716,VALID,139,VALID,0.720703,
2011-04-17, 00:18:04,VALID,1000.73,VALID,0,VALID,90.7238,VALID,0,VALID,24.757,VALID,150,VALID,1.04023,
2011-04-17, 00:19:04,VALID,1000.74,VALID,0,VALID,90.7162,VALID,0,VALID,24.757,VALID,152,VALID,0.689844,
2011-04-17, 00:20:04,VALID,1000.72,VALID,0,VALID,90.7391,VALID,0,VALID,24.7746,VALID,176,VALID,0.948828,
2011-04-17, 00:21:04,VALID,1000.72,VALID,0,VALID,90.762,VALID,0,VALID,24.7941,VALID,173,VALID,0.811719,
2011-04-17, 00:22:04,VALID,1000.69,VALID,0,VALID,90.7696,VALID,0,VALID,24.8136,VALID,173,VALID,0.658984,
2011-04-17, 00:23:04,VALID,1000.7,VALID,0,VALID,90.7391,VALID,0,VALID,24.8332,VALID,173,VALID,0.530469,
2011-04-17, 00:24:04,VALID,1000.68,VALID,0,VALID,90.7314,VALID,0,VALID,24.8527,VALID,173,VALID,0.916406,
2011-04-17, 00:25:04,VALID,1000.64,VALID,0,VALID,90.7162,VALID,0,VALID,24.8917,VALID,172,VALID,0.736328,
2011-04-17, 00:26:04,VALID,1000.65,VALID,0,VALID,90.617,VALID,0,VALID,24.8917,VALID,144,VALID,0.758984,
2011-04-17, 00:27:04,VALID,1000.65,VALID,0,VALID,90.4873,VALID,0,VALID,24.9112,VALID,144,VALID,0.593359,
2011-04-17, 00:28:04,VALID,1000.64,VALID,0,VALID,90.3957,VALID,0,VALID,24.9112,VALID,154,VALID,0.892578,
2011-04-17, 00:29:04,VALID,1000.63,VALID,0,VALID,90.3728,VALID,0,VALID,24.9503,VALID,154,VALID,0.715234,
2011-04-17, 00:30:04,VALID,1000.63,VALID,0,VALID,90.3652,VALID,0,VALID,24.9698,VALID,154,VALID,0.675391,
2011-04-17, 00:31:04,VALID,1000.61,VALID,0,VALID,90.3423,VALID,0,VALID,24.9465,VALID,154,VALID,0.573047,
2011-04-17, 00:32:04,VALID,1000.61,VALID,0,VALID,90.2508,VALID,0.112286,VALID,24.9484,VALID,154,VALID,0.465234,
2011-04-17, 00:33:04,VALID,1000.6,VALID,0,VALID,90.2279,VALID,0,VALID,24.9484,VALID,154,VALID,0.556641,
2011-04-17, 00:34:04,VALID,1000.55,VALID,0,VALID,90.2355,VALID,0.112286,VALID,24.9289,VALID,154,VALID,0.764453,
2011-04-17, 00:35:04,VALID,1000.54,VALID,0,VALID,90.2584,VALID,0,VALID,24.9093,VALID,154,VALID,0.733594,
2011-04-17, 00:36:04,VALID,1000.55,VALID,0,VALID,90.3576,VALID,0,VALID,24.9093,VALID,157,VALID,1.35312,
2011-04-17, 00:37:04,VALID,1000.5,VALID,0,VALID,90.4034,VALID,0.112286,VALID,24.9289,VALID,161,VALID,1.13672,
2011-04-17, 00:38:04,VALID,1000.49,VALID,0,VALID,90.4034,VALID,0.112286,VALID,24.9093,VALID,135,VALID,1.06953,
2011-04-17, 00:39:04,VALID,1000.47,VALID,0,VALID,90.3652,VALID,0.112286,VALID,24.9503,VALID,135,VALID,0.9875,
2011-04-17, 00:40:04,VALID,1000.44,VALID,0,VALID,90.35,VALID,0.112286,VALID,24.8898,VALID,135,VALID,0.964063,
2011-04-17, 00:41:04,VALID,1000.39,VALID,0,VALID,90.3423,VALID,0.112286,VALID,24.8703,VALID,125,VALID,1.0332,
2011-04-17, 00:42:04,VALID,1000.36,VALID,0,VALID,90.3957,VALID,0.112286,VALID,24.8508,VALID,121,VALID,1.06328,
2011-04-17, 00:43:04,VALID,1000.36,VALID,0,VALID,90.4949,VALID,0,VALID,24.8117,VALID,121,VALID,0.951563,
2011-04-17, 00:44:04,VALID,1000.32,VALID,0,VALID,90.556,VALID,0.112286,VALID,24.7922,VALID,121,VALID,0.839453,
2011-04-17, 00:45:04,VALID,1000.29,VALID,0,VALID,90.6323,VALID,0,VALID,24.7727,VALID,121,VALID,0.738281,
2011-04-17, 00:46:04,VALID,1000.24,VALID,0,VALID,90.7314,VALID,0,VALID,24.7551,VALID,121,VALID,0.571484,
2011-04-17, 00:47:04,VALID,1000.22,VALID,0,VALID,90.8001,VALID,0,VALID,24.7356,VALID,121,VALID,0.292188,
2011-04-17, 00:48:04,VALID,1000.19,VALID,0,VALID,90.8611,VALID,0.112286,VALID,24.6946,VALID,120,VALID,0.690234,
2011-04-17, 00:49:04,VALID,1000.15,VALID,0,VALID,90.9374,VALID,0,VALID,24.6965,VALID,120,VALID,0.601172,
2011-04-17, 00:50:04,VALID,1000.12,VALID,0,VALID,90.9985,VALID,0,VALID,24.6556,VALID,120,VALID,0.448047,
2011-04-17, 00:51:04,VALID,1000.09,VALID,0,VALID,91.0595,VALID,0,VALID,24.6361,VALID,121,VALID,0.238672,
2011-04-17, 00:52:04,VALID,1000.04,VALID,0,VALID,91.1358,VALID,0.112286,VALID,24.6166,VALID,121,VALID,0.208594,
2011-04-17, 00:53:04,VALID,1000.03,VALID,0,VALID,91.1587,VALID,0,VALID,24.5971,VALID,121,VALID,0.302344,
2011-04-17, 00:54:04,VALID,999.985,VALID,0,VALID,91.2426,VALID,0,VALID,24.5775,VALID,121,VALID,0.311328,
2011-04-17, 00:55:04,VALID,999.965,VALID,0,VALID,91.296,VALID,0,VALID,24.5775,VALID,121,VALID,0.367578,
2011-04-17, 00:56:04,VALID,999.936,VALID,0,VALID,91.4105,VALID,0.112286,VALID,24.5971,VALID,120,VALID,0.322656,
2011-04-17, 00:57:04,VALID,999.928,VALID,0,VALID,91.502,VALID,0,VALID,24.5989,VALID,120,VALID,0.467578,
2011-04-17, 00:58:04,VALID,999.883,VALID,0,VALID,91.5249,VALID,0.112286,VALID,24.5775,VALID,120,VALID,0.461719,
2011-04-17, 00:59:04,VALID,999.87,VALID,0,VALID,91.5783,VALID,0,VALID,24.5971,VALID,120,VALID,0.522266,
2011-04-17, 01:00:04,VALID,999.836,VALID,0,VALID,91.5554,VALID,0,VALID,24.5599,VALID,84,VALID,0.713281,
2011-04-17, 01:01:04,VALID,999.858,VALID,0,VALID,91.5402,VALID,0,VALID,24.5618,VALID,57,VALID,0.673437,
2011-04-17, 01:02:04,VALID,999.839,VALID,0,VALID,91.4486,VALID,0,VALID,24.5013,VALID,42,VALID,0.928125,
2011-04-17, 01:03:04,VALID,999.833,VALID,0,VALID,91.3647,VALID,0,VALID,24.4623,VALID,23,VALID,1.00781,
2011-04-17, 01:04:04,VALID,999.806,VALID,0,VALID,91.3494,VALID,0,VALID,24.4233,VALID,17,VALID,1.01133,
2011-04-17, 01:05:04,VALID,999.827,VALID,0,VALID,91.2808,VALID,0,VALID,24.3647,VALID,17,VALID,1.0832,
2011-04-17, 01:06:04,VALID,999.799,VALID,0,VALID,91.2121,VALID,0,VALID,24.3062,VALID,17,VALID,1.24727,
2011-04-17, 01:07:04,VALID,999.825,VALID,0,VALID,91.2045,VALID,0,VALID,24.2476,VALID,16,VALID,1.20352,
2011-04-17, 01:08:04,VALID,999.818,VALID,0,VALID,91.2655,VALID,0,VALID,24.2086,VALID,16,VALID,1.19844,
2011-04-17, 01:09:04,VALID,999.779,VALID,0,VALID,91.3571,VALID,0,VALID,24.2104,VALID,9,VALID,0.848047,
2011-04-17, 01:10:04,VALID,999.776,VALID,0,VALID,91.5402,VALID,0,VALID,24.2299,VALID,10,VALID,0.871094,
2011-04-17, 01:11:04,VALID,999.751,VALID,0,VALID,91.6851,VALID,0,VALID,24.2281,VALID,9,VALID,0.542188,
2011-04-17, 01:12:04,VALID,999.74,VALID,0,VALID,91.7614,VALID,0,VALID,24.2495,VALID,9,VALID,0.289063,
2011-04-17, 01:13:04,VALID,999.697,VALID,0,VALID,91.8148,VALID,0,VALID,24.2495,VALID,10,VALID,0,
2011-04-17, 01:14:04,VALID,999.704,VALID,0,VALID,91.8759,VALID,0,VALID,24.2495,VALID,9,VALID,0.160156,
2011-04-17, 01:15:04,VALID,999.675,VALID,0,VALID,91.914,VALID,0,VALID,24.2476,VALID,10,VALID,0,
2011-04-17, 01:16:04,VALID,999.65,VALID,0,VALID,91.9217,VALID,0,VALID,24.2476,VALID,9,VALID,0,
2011-04-17, 01:17:04,VALID,999.688,VALID,0,VALID,91.9598,VALID,0,VALID,24.2281,VALID,9,VALID,0,
2011-04-17, 01:18:04,VALID,999.659,VALID,0,VALID,91.998,VALID,0,VALID,24.2086,VALID,9,VALID,0,
2011-04-17, 01:19:04,VALID,999.684,VALID,0,VALID,92.0056,VALID,0,VALID,24.2086,VALID,9,VALID,0,
2011-04-17, 01:20:04,VALID,999.681,VALID,0,VALID,92.0285,VALID,0,VALID,24.2104,VALID,9,VALID,0,
2011-04-17, 01:21:04,VALID,999.688,VALID,0,VALID,92.0437,VALID,0,VALID,24.1696,VALID,10,VALID,0,
2011-04-17, 01:22:04,VALID,999.64,VALID,0,VALID,92.0514,VALID,0,VALID,24.1696,VALID,10,VALID,0,
2011-04-17, 01:23:04,VALID,999.666,VALID,0,VALID,92.0743,VALID,0,VALID,24.15,VALID,9,VALID,0,
2011-04-17, 01:24:04,VALID,999.683,VALID,0,VALID,92.0895,VALID,0,VALID,24.15,VALID,10,VALID,0,
2011-04-17, 01:25:04,VALID,999.709,VALID,0,VALID,92.0971,VALID,0,VALID,24.1305,VALID,9,VALID,0,
2011-04-17, 01:26:04,VALID,999.669,VALID,0,VALID,92.1048,VALID,0,VALID,24.072,VALID,9,VALID,0,
2011-04-17, 01:27:04,VALID,999.636,VALID,0,VALID,92.1048,VALID,0,VALID,24.0525,VALID,9,VALID,0,
2011-04-17, 01:28:04,VALID,999.664,VALID,0,VALID,92.1277,VALID,0,VALID,24.0525,VALID,9,VALID,0,
2011-04-17, 01:29:04,VALID,999.614,VALID,0,VALID,92.1734,VALID,0,VALID,24.0933,VALID,9,VALID,0,
2011-04-17, 01:30:04,VALID,999.595,VALID,0,VALID,92.1963,VALID,0,VALID,24.0933,VALID,10,VALID,0,
2011-04-17, 01:31:04,VALID,999.638,VALID,0,VALID,92.2192,VALID,0,VALID,24.1324,VALID,9,VALID,0,
2011-04-17, 01:32:04,VALID,999.605,VALID,0,VALID,92.2574,VALID,0,VALID,24.072,VALID,9,VALID,0,
2011-04-17, 01:33:04,VALID,999.633,VALID,0,VALID,92.2574,VALID,0,VALID,24.0525,VALID,9,VALID,0,
2011-04-17, 01:34:04,VALID,999.644,VALID,0,VALID,92.2803,VALID,0,VALID,24.0525,VALID,9,VALID,0,
2011-04-17, 01:35:04,VALID,999.635,VALID,0,VALID,92.2803,VALID,0,VALID,24.072,VALID,9,VALID,0,
2011-04-17, 01:36:04,VALID,999.632,VALID,0,VALID,92.326,VALID,0,VALID,24.1324,VALID,9,VALID,0,
2011-04-17, 01:37:04,VALID,999.621,VALID,0,VALID,92.3566,VALID,0,VALID,24.15,VALID,9,VALID,0,
2011-04-17, 01:38:04,VALID,999.607,VALID,0,VALID,92.3718,VALID,0,VALID,24.1891,VALID,9,VALID,0,
2011-04-17, 01:39:04,VALID,999.621,VALID,0,VALID,92.3718,VALID,0,VALID,24.2104,VALID,9,VALID,0.233203,
2011-04-17, 01:40:04,VALID,999.586,VALID,0,VALID,92.3718,VALID,0,VALID,24.2086,VALID,9,VALID,0.483984,
2011-04-17, 01:41:04,VALID,999.545,VALID,0,VALID,92.3413,VALID,0,VALID,24.2281,VALID,9,VALID,0.457422,
2011-04-17, 01:42:04,VALID,999.548,VALID,0,VALID,92.326,VALID,0,VALID,24.2281,VALID,9,VALID,0.512109,
2011-04-17, 01:43:04,VALID,999.499,VALID,0,VALID,92.2879,VALID,0,VALID,24.2476,VALID,9,VALID,0.478125,
2011-04-17, 01:44:04,VALID,999.477,VALID,0,VALID,92.2955,VALID,0,VALID,24.2866,VALID,9,VALID,0.359766,
2011-04-17, 01:45:04,VALID,999.437,VALID,0,VALID,92.265,VALID,0,VALID,24.3062,VALID,9,VALID,0.435547,
2011-04-17, 01:46:04,VALID,999.428,VALID,0,VALID,92.2268,VALID,0,VALID,24.2866,VALID,9,VALID,0.241797,
2011-04-17, 01:47:04,VALID,999.381,VALID,0,VALID,92.1963,VALID,0,VALID,24.2866,VALID,9,VALID,0.249219,
2011-04-17, 01:48:04,VALID,999.414,VALID,0,VALID,92.1582,VALID,0,VALID,24.2885,VALID,9,VALID,0.119141,
2011-04-17, 01:49:04,VALID,999.396,VALID,0,VALID,92.1048,VALID,0,VALID,24.2885,VALID,9,VALID,0.278516,
2011-04-17, 01:50:04,VALID,999.399,VALID,0,VALID,92.0666,VALID,0,VALID,24.2885,VALID,14,VALID,0.648828,
2011-04-17, 01:51:04,VALID,999.354,VALID,0,VALID,91.9674,VALID,0,VALID,24.2086,VALID,51,VALID,1.16914,
2011-04-17, 01:52:04,VALID,999.365,VALID,0,VALID,91.9217,VALID,0,VALID,24.1891,VALID,51,VALID,1.48672,
2011-04-17, 01:53:04,VALID,999.346,VALID,0,VALID,91.9751,VALID,0,VALID,24.2086,VALID,52,VALID,1.16992,
2011-04-17, 01:54:04,VALID,999.341,VALID,0,VALID,91.9293,VALID,0,VALID,24.1696,VALID,52,VALID,1.22617,
2011-04-17, 01:55:04,VALID,999.335,VALID,0,VALID,91.8377,VALID,0,VALID,24.0915,VALID,52,VALID,1.01367,
2011-04-17, 01:56:04,VALID,999.313,VALID,0,VALID,91.8148,VALID,0,VALID,24.0525,VALID,43,VALID,0.901563,
2011-04-17, 01:57:04,VALID,999.318,VALID,0,VALID,91.792,VALID,0,VALID,23.9939,VALID,44,VALID,0.907031,
2011-04-17, 01:58:04,VALID,999.293,VALID,0,VALID,91.7996,VALID,0,VALID,23.9744,VALID,44,VALID,0.562891,
2011-04-17, 01:59:04,VALID,999.26,VALID,0,VALID,91.8454,VALID,0,VALID,23.9762,VALID,44,VALID,0.639453,
2011-04-17, 02:00:04,VALID,999.244,VALID,0,VALID,91.914,VALID,0,VALID,23.9744,VALID,44,VALID,0.560547,
2011-04-17, 02:01:04,VALID,999.226,VALID,0,VALID,91.9827,VALID,0,VALID,23.9549,VALID,44,VALID,0.532812,
2011-04-17, 02:02:04,VALID,999.185,VALID,0,VALID,92.0285,VALID,0,VALID,23.9549,VALID,44,VALID,0.566016,
2011-04-17, 02:03:04,VALID,999.161,VALID,0,VALID,92.0971,VALID,0,VALID,23.9549,VALID,44,VALID,0.624219,
2011-04-17, 02:04:04,VALID,999.142,VALID,0,VALID,92.1582,VALID,0,VALID,23.9744,VALID,44,VALID,0.501953,
2011-04-17, 02:05:04,VALID,999.126,VALID,0,VALID,92.2116,VALID,0,VALID,23.9549,VALID,44,VALID,0.497656,
2011-04-17, 02:06:04,VALID,999.102,VALID,0,VALID,92.2421,VALID,0,VALID,23.9549,VALID,44,VALID,0.281641,
2011-04-17, 02:07:04,VALID,999.097,VALID,0,VALID,92.2803,VALID,0,VALID,23.9354,VALID,44,VALID,0.342187,
2011-04-17, 02:08:04,VALID,999.101,VALID,0,VALID,92.326,VALID,0,VALID,23.9567,VALID,44,VALID,0.432813,
2011-04-17, 02:09:04,VALID,999.117,VALID,0,VALID,92.326,VALID,0,VALID,23.8982,VALID,44,VALID,0.424219,
2011-04-17, 02:10:04,VALID,999.106,VALID,0,VALID,92.3642,VALID,0,VALID,23.9177,VALID,44,VALID,0.357031,
2011-04-17, 02:11:04,VALID,999.121,VALID,0,VALID,92.3718,VALID,0,VALID,23.8963,VALID,44,VALID,0.528125,
2011-04-17, 02:12:04,VALID,999.168,VALID,0,VALID,92.4328,VALID,0,VALID,23.9159,VALID,44,VALID,0.521484,
2011-04-17, 02:13:04,VALID,999.151,VALID,0,VALID,92.471,VALID,0,VALID,23.9354,VALID,44,VALID,0.427734,
2011-04-17, 02:14:04,VALID,999.126,VALID,0,VALID,92.4863,VALID,0,VALID,23.9354,VALID,44,VALID,0.171484,
2011-04-17, 02:15:04,VALID,999.08,VALID,0,VALID,92.4786,VALID,0,VALID,23.875,VALID,44,VALID,0,
2011-04-17, 02:16:04,VALID,999.052,VALID,0,VALID,92.4786,VALID,0,VALID,23.8165,VALID,44,VALID,0,
2011-04-17, 02:17:04,VALID,998.979,VALID,0,VALID,92.4786,VALID,0,VALID,23.8165,VALID,44,VALID,0,
2011-04-17, 02:18:04,VALID,998.952,VALID,0,VALID,92.471,VALID,0,VALID,23.8165,VALID,44,VALID,0,
2011-04-17, 02:19:04,VALID,998.928,VALID,0,VALID,92.5091,VALID,0,VALID,23.8165,VALID,44,VALID,0,
2011-04-17, 02:20:04,VALID,998.937,VALID,0,VALID,92.532,VALID,0,VALID,23.8165,VALID,44,VALID,0,
2011-04-17, 02:21:04,VALID,998.909,VALID,0,VALID,92.532,VALID,0,VALID,23.8165,VALID,44,VALID,0,
2011-04-17, 02:22:04,VALID,998.924,VALID,0,VALID,92.5397,VALID,0,VALID,23.8165,VALID,44,VALID,0,
2011-04-17, 02:23:04,VALID,998.965,VALID,0,VALID,92.5702,VALID,0,VALID,23.836,VALID,44,VALID,0,
2011-04-17, 02:24:04,VALID,999.004,VALID,0,VALID,92.5931,VALID,0,VALID,23.8573,VALID,30,VALID,0.8875,
2011-04-17, 02:25:04,VALID,999.004,VALID,0,VALID,92.6083,VALID,0.112286,VALID,23.836,VALID,20,VALID,1.01172,
2011-04-17, 02:26:04,VALID,999.043,VALID,0,VALID,92.6236,VALID,0.112286,VALID,23.8165,VALID,11,VALID,0.989453,
2011-04-17, 02:27:04,VALID,999.014,VALID,0,VALID,92.6236,VALID,0,VALID,23.8378,VALID,11,VALID,0.900391,
2011-04-17, 02:28:04,VALID,999.023,VALID,0,VALID,92.6236,VALID,0,VALID,23.7793,VALID,4,VALID,0.951172,
2011-04-17, 02:29:04,VALID,999.025,VALID,0,VALID,92.6541,VALID,0,VALID,23.797,VALID,3,VALID,0.709766,
2011-04-17, 02:30:04,VALID,998.975,VALID,0,VALID,92.677,VALID,0,VALID,23.7793,VALID,3,VALID,0.551172,
2011-04-17, 02:31:04,VALID,998.967,VALID,0,VALID,92.6694,VALID,0,VALID,23.7597,VALID,3,VALID,0.278516,
2011-04-17, 02:32:04,VALID,998.966,VALID,0,VALID,92.6999,VALID,0,VALID,23.7793,VALID,3,VALID,0.273047,
2011-04-17, 02:33:04,VALID,998.969,VALID,0,VALID,92.7151,VALID,0,VALID,23.7597,VALID,3,VALID,0.223828,
2011-04-17, 02:34:04,VALID,998.967,VALID,0,VALID,92.7151,VALID,0,VALID,23.7811,VALID,3,VALID,0.229297,
2011-04-17, 02:35:04,VALID,998.972,VALID,0,VALID,92.738,VALID,0,VALID,23.7811,VALID,3,VALID,0.346484,
2011-04-17, 02:36:04,VALID,999.016,VALID,0,VALID,92.7304,VALID,0,VALID,23.7793,VALID,3,VALID,0.331641,
2011-04-17, 02:37:04,VALID,998.996,VALID,0,VALID,92.7457,VALID,0,VALID,23.7988,VALID,3,VALID,0.248047,
2011-04-17, 02:38:04,VALID,999.01,VALID,0,VALID,92.7685,VALID,0,VALID,23.7988,VALID,3,VALID,0.350781,
2011-04-17, 02:39:04,VALID,999.045,VALID,0,VALID,92.7762,VALID,0,VALID,23.7988,VALID,3,VALID,0,
2011-04-17, 02:40:04,VALID,999.029,VALID,0,VALID,92.7838,VALID,0,VALID,23.7988,VALID,3,VALID,0,
2011-04-17, 02:41:04,VALID,998.966,VALID,0,VALID,92.8067,VALID,0,VALID,23.7988,VALID,3,VALID,0,
2011-04-17, 02:42:04,VALID,998.97,VALID,0,VALID,92.8296,VALID,0,VALID,23.7988,VALID,3,VALID,0,
2011-04-17, 02:43:04,VALID,998.971,VALID,0,VALID,92.8296,VALID,0,VALID,23.7597,VALID,3,VALID,0,
2011-04-17, 02:44:04,VALID,998.975,VALID,0,VALID,92.7991,VALID,0,VALID,23.7616,VALID,3,VALID,0,
2011-04-17, 02:45:04,VALID,998.941,VALID,0,VALID,92.8067,VALID,0,VALID,23.7207,VALID,3,VALID,0,
2011-04-17, 02:46:04,VALID,998.969,VALID,0,VALID,92.8143,VALID,0,VALID,23.7402,VALID,3,VALID,0,
2011-04-17, 02:47:04,VALID,998.977,VALID,0,VALID,92.8296,VALID,0,VALID,23.7402,VALID,3,VALID,0,
2011-04-17, 02:48:04,VALID,998.951,VALID,0,VALID,92.8296,VALID,0,VALID,23.7207,VALID,3,VALID,0,
2011-04-17, 02:49:04,VALID,998.983,VALID,0,VALID,92.8372,VALID,0,VALID,23.7207,VALID,3,VALID,0,
2011-04-17, 02:50:04,VALID,998.977,VALID,0,VALID,92.8372,VALID,0,VALID,23.7012,VALID,3,VALID,0,
2011-04-17, 02:51:04,VALID,998.978,VALID,0,VALID,92.8601,VALID,0,VALID,23.7207,VALID,3,VALID,0,
2011-04-17, 02:52:04,VALID,999.027,VALID,0,VALID,92.8754,VALID,0,VALID,23.7207,VALID,3,VALID,0,
2011-04-17, 02:53:04,VALID,999.027,VALID,0,VALID,92.8754,VALID,0,VALID,23.7402,VALID,3,VALID,0,
2011-04-17, 02:54:04,VALID,999.077,VALID,0,VALID,92.8754,VALID,0,VALID,23.7207,VALID,3,VALID,0,
2011-04-17, 02:55:04,VALID,999.118,VALID,0,VALID,92.883,VALID,0,VALID,23.7207,VALID,3,VALID,0,
2011-04-17, 02:56:04,VALID,999.152,VALID,0,VALID,92.9059,VALID,0,VALID,23.7207,VALID,16,VALID,0,
2011-04-17, 02:57:04,VALID,999.154,VALID,0,VALID,92.8983,VALID,0,VALID,23.7012,VALID,63,VALID,0,
2011-04-17, 02:58:04,VALID,999.167,VALID,0,VALID,92.9211,VALID,0,VALID,23.7207,VALID,63,VALID,0,
2011-04-17, 02:59:04,VALID,999.157,VALID,0,VALID,92.9211,VALID,0,VALID,23.7207,VALID,63,VALID,0,
2011-04-17, 03:00:04,VALID,999.173,VALID,0,VALID,92.9364,VALID,0,VALID,23.7225,VALID,63,VALID,0,
2011-04-17, 03:01:04,VALID,999.154,VALID,0,VALID,92.9288,VALID,0,VALID,23.7207,VALID,63,VALID,0,
2011-04-17, 03:02:04,VALID,999.141,VALID,0,VALID,92.944,VALID,0,VALID,23.7207,VALID,123,VALID,0,
2011-04-17, 03:03:04,VALID,999.15,VALID,0,VALID,92.9288,VALID,0,VALID,23.7402,VALID,123,VALID,0,
2011-04-17, 03:04:04,VALID,999.137,VALID,0,VALID,92.9517,VALID,0,VALID,23.7597,VALID,133,VALID,0,
2011-04-17, 03:05:04,VALID,999.173,VALID,0,VALID,92.9517,VALID,0,VALID,23.7597,VALID,137,VALID,0.764453,
2011-04-17, 03:06:04,VALID,999.157,VALID,0,VALID,92.944,VALID,0,VALID,23.7988,VALID,144,VALID,0.707422,
2011-04-17, 03:07:04,VALID,999.151,VALID,0,VALID,92.944,VALID,0,VALID,23.7988,VALID,145,VALID,0.721875,
2011-04-17, 03:08:04,VALID,999.157,VALID,0,VALID,92.9517,VALID,0,VALID,23.8183,VALID,151,VALID,0.683594,
2011-04-17, 03:09:04,VALID,999.099,VALID,0,VALID,92.9517,VALID,0,VALID,23.8378,VALID,151,VALID,0.506641,
2011-04-17, 03:10:04,VALID,999.113,VALID,0,VALID,92.9288,VALID,0,VALID,23.8573,VALID,151,VALID,0.355078,
2011-04-17, 03:11:04,VALID,999.084,VALID,0,VALID,92.944,VALID,0,VALID,23.8573,VALID,151,VALID,0.396484,
2011-04-17, 03:12:04,VALID,999.11,VALID,0,VALID,92.9364,VALID,0,VALID,23.8573,VALID,151,VALID,0.0851562,
2011-04-17, 03:13:04,VALID,999.096,VALID,0,VALID,92.9211,VALID,0,VALID,23.8183,VALID,151,VALID,0.129688,
2011-04-17, 03:14:04,VALID,999.066,VALID,0,VALID,92.8983,VALID,0,VALID,23.8183,VALID,151,VALID,0.232812,
2011-04-17, 03:15:04,VALID,999.064,VALID,0,VALID,92.8983,VALID,0,VALID,23.7597,VALID,151,VALID,0.00195313,
2011-04-17, 03:16:04,VALID,999.056,VALID,0,VALID,92.8677,VALID,0,VALID,23.7012,VALID,151,VALID,0,
2011-04-17, 03:17:04,VALID,999.041,VALID,0,VALID,92.822,VALID,0,VALID,23.5841,VALID,151,VALID,0,
2011-04-17, 03:18:04,VALID,999.014,VALID,0,VALID,92.7762,VALID,0,VALID,23.5451,VALID,151,VALID,0,
2011-04-17, 03:19:04,VALID,999.021,VALID,0,VALID,92.7304,VALID,0,VALID,23.5061,VALID,151,VALID,0,
2011-04-17, 03:20:04,VALID,999.034,VALID,0,VALID,92.6923,VALID,0,VALID,23.4671,VALID,151,VALID,0.288281,
2011-04-17, 03:21:04,VALID,999.04,VALID,0,VALID,92.6846,VALID,0,VALID,23.4671,VALID,151,VALID,0,
2011-04-17, 03:22:04,VALID,999.075,VALID,0,VALID,92.6923,VALID,0,VALID,23.4866,VALID,151,VALID,0,
2011-04-17, 03:23:04,VALID,999.116,VALID,0,VALID,92.7151,VALID,0,VALID,23.5256,VALID,143,VALID,0.685156,
2011-04-17, 03:24:04,VALID,999.121,VALID,0,VALID,92.7609,VALID,0,VALID,23.6232,VALID,143,VALID,0.767578,
2011-04-17, 03:25:04,VALID,999.151,VALID,0,VALID,92.7609,VALID,0,VALID,23.6427,VALID,143,VALID,0.771094,
2011-04-17, 03:26:04,VALID,999.113,VALID,0,VALID,92.7991,VALID,0,VALID,23.6232,VALID,133,VALID,0.811328,
2011-04-17, 03:27:04,VALID,999.11,VALID,0,VALID,92.7991,VALID,0,VALID,23.6427,VALID,133,VALID,0.903516,
2011-04-17, 03:28:04,VALID,999.109,VALID,0,VALID,92.7991,VALID,0,VALID,23.6232,VALID,133,VALID,0.898047,
2011-04-17, 03:29:04,VALID,999.085,VALID,0,VALID,92.8067,VALID,0,VALID,23.6232,VALID,133,VALID,0.799609,
2011-04-17, 03:30:04,VALID,999.095,VALID,0,VALID,92.8143,VALID,0,VALID,23.6232,VALID,133,VALID,0.716797,
2011-04-17, 03:31:04,VALID,999.08,VALID,0,VALID,92.822,VALID,0,VALID,23.6232,VALID,133,VALID,0.407422,
2011-04-17, 03:32:04,VALID,999.047,VALID,0,VALID,92.8372,VALID,0,VALID,23.625,VALID,133,VALID,0.301172,
2011-04-17, 03:33:04,VALID,999.049,VALID,0,VALID,92.8296,VALID,0,VALID,23.625,VALID,133,VALID,0,
2011-04-17, 03:34:04,VALID,999.019,VALID,0,VALID,92.8296,VALID,0,VALID,23.625,VALID,133,VALID,0,
2011-04-17, 03:35:04,VALID,999.019,VALID,0,VALID,92.8754,VALID,0,VALID,23.6036,VALID,133,VALID,0,
2011-04-17, 03:36:04,VALID,999.01,VALID,0,VALID,92.8525,VALID,0,VALID,23.6036,VALID,133,VALID,0,
2011-04-17, 03:37:04,VALID,998.997,VALID,0,VALID,92.8601,VALID,0,VALID,23.5841,VALID,133,VALID,0,
2011-04-17, 03:38:04,VALID,999.014,VALID,0,VALID,92.8525,VALID,0,VALID,23.6036,VALID,133,VALID,0,
2011-04-17, 03:39:04,VALID,999.029,VALID,0,VALID,92.8525,VALID,0,VALID,23.6036,VALID,133,VALID,0,
2011-04-17, 03:40:04,VALID,999.038,VALID,0,VALID,92.8754,VALID,0,VALID,23.6036,VALID,133,VALID,0,
2011-04-17, 03:41:04,VALID,999.085,VALID,0,VALID,92.8677,VALID,0,VALID,23.6232,VALID,133,VALID,0,
2011-04-17, 03:42:04,VALID,999.095,VALID,0,VALID,92.883,VALID,0,VALID,23.625,VALID,133,VALID,0,
2011-04-17, 03:43:04,VALID,999.123,VALID,0,VALID,92.9059,VALID,0,VALID,23.6232,VALID,133,VALID,0,
2011-04-17, 03:44:04,VALID,999.119,VALID,0,VALID,92.9059,VALID,0,VALID,23.6445,VALID,133,VALID,0,
2011-04-17, 03:45:04,VALID,999.186,VALID,0,VALID,92.8983,VALID,0,VALID,23.6232,VALID,133,VALID,0,
2011-04-17, 03:46:04,VALID,999.215,VALID,0,VALID,92.9135,VALID,0,VALID,23.6036,VALID,133,VALID,0,
2011-04-17, 03:47:04,VALID,999.212,VALID,0,VALID,92.8983,VALID,0,VALID,23.5646,VALID,133,VALID,0,
2011-04-17, 03:48:04,VALID,999.236,VALID,0,VALID,92.9059,VALID,0,VALID,23.5451,VALID,133,VALID,0,
2011-04-17, 03:49:04,VALID,999.223,VALID,0,VALID,92.9211,VALID,0,VALID,23.5646,VALID,133,VALID,0,
2011-04-17, 03:50:04,VALID,999.25,VALID,0,VALID,92.9211,VALID,0,VALID,23.5451,VALID,133,VALID,0,
2011-04-17, 03:51:04,VALID,999.248,VALID,0,VALID,92.944,VALID,0,VALID,23.5646,VALID,133,VALID,0,